This is the latest recevied weather packets stored in our database for station/object AI5BL. If no packets are shown the sender has not sent any weather packets the latest 10 day(s).
| Time | Temp. | Humidity | Pressure | Rain* | Wind** | Luminosity | Snow |
|---|---|---|---|---|---|---|---|
| 1777729201 | 15.56° C | 85% | 1018 hPa | 0 mm | - | 315 W/m² | - |
| 1777728897 | 15° C | 85% | 1017.9 hPa | 0 mm | - | 300 W/m² | - |
| 1777728594 | 14.44° C | 90% | 1017.9 hPa | 0 mm | - | 274 W/m² | - |
| 1777728292 | 14.44° C | 90% | 1017.8 hPa | 0 mm | - | 262 W/m² | - |
| 1777727989 | 13.89° C | 94% | 1017.7 hPa | 0 mm | - | 245 W/m² | - |
| 1777727685 | 13.89° C | 97% | 1017.8 hPa | 0 mm | - | 230 W/m² | - |
| 1777727382 | 12.78° C | 99% | 1017.5 hPa | 0 mm | - | 219 W/m² | - |
| 1777727080 | 12.78° C | 99% | 1017.6 hPa | 0 mm | - | 178 W/m² | - |
| 1777726777 | 12.78° C | 99% | 1017.6 hPa | 0 mm | - | 179 W/m² | - |
| 1777726474 | 12.78° C | 99% | 1017.6 hPa | 0 mm | - | 112 W/m² | - |
| 1777726171 | 12.78° C | 99% | 1017.6 hPa | 0 mm | - | 122 W/m² | - |
| 1777725565 | 12.78° C | 99% | 1017.5 hPa | 0 mm | - | 100 W/m² | - |
| 1777725262 | 12.22° C | 99% | 1017.4 hPa | 0 mm | - | 90 W/m² | - |
| 1777724960 | 12.22° C | 99% | 1017.2 hPa | 0 mm | - | 71 W/m² | - |
| 1777724354 | 12.22° C | 99% | 1017.3 hPa | 0 mm | - | 57 W/m² | - |
| 1777724050 | 12.22° C | 99% | 1017.1 hPa | 0 mm | - | 54 W/m² | - |
| 1777723748 | 12.22° C | 99% | 1017.4 hPa | 0 mm | - | 48 W/m² | - |
| 1777723444 | 12.22° C | 99% | 1017.3 hPa | 0 mm | - | 37 W/m² | - |
| 1777723142 | 12.22° C | 99% | 1017 hPa | 0 mm | - | 30 W/m² | - |
| 1777722839 | 12.22° C | 99% | 1016.9 hPa | 0 mm | - | 30 W/m² | - |
| 1777719509 | 11.67° C | 99% | 1015.9 hPa | 0 mm | - | 0 W/m² | - |
| 1777719206 | 11.67° C | 99% | 1015.5 hPa | 0 mm | - | 0 W/m² | - |
| 1777718903 | 11.67° C | 99% | 1015.7 hPa | 0 mm | - | 0 W/m² | - |
| 1777718601 | 11.67° C | 99% | 1015.7 hPa | 0 mm | - | 0 W/m² | - |
| 1777718298 | 11.67° C | 99% | 1015.6 hPa | 0 mm | - | 0 W/m² | - |
* Rain latest hour (hover to see other rain measurements)
** Current wind speed in m/s (hover to see current wind gust speed)